| time (UTC) | temp C | wind direction | speed KPH | gust KPH | rain 1hr cm | rain 24hr cm | rain mn cm | humidity % | barometer mb |
| 20260505184602 | 26 | 257 | 3.2 | 9.7 | 0.00 | 0.00 | 0.00 | 42 | 1012.3 |
| 20260505184102 | 26 | 269 | 3.2 | 9.7 | 0.00 | 0.00 | 0.00 | 43 | 1012.5 |
| 20260505183603 | 26 | 235 | 1.6 | 4.8 | 0.00 | 0.00 | 0.00 | 44 | 1012.5 |
| 20260505183102 | 25 | 135 | 1.6 | 4.8 | 0.00 | 0.00 | 0.00 | 43 | 1012.4 |
| 20260505182603 | 25 | 249 | 1.6 | 8.0 | 0.00 | 0.00 | 0.00 | 43 | 1012.5 |
| 20260505182103 | 25 | 79 | 1.6 | 4.8 | 0.00 | 0.00 | 0.00 | 44 | 1012.6 |
| 20260505181603 | 25 | 255 | 1.6 | 4.8 | 0.00 | 0.00 | 0.00 | 43 | 1012.7 |
| 20260505181103 | 25 | 257 | 3.2 | 4.8 | 0.00 | 0.00 | 0.00 | 41 | 1012.6 |
| 20260505175602 | 25 | 262 | 3.2 | 11.3 | 0.00 | 0.00 | 0.00 | 41 | 1012.5 |
| 20260505175102 | 25 | 253 | 3.2 | 9.7 | 0.00 | 0.00 | 0.00 | 42 | 1012.7 |
| 20260505174602 | 25 | 273 | 4.8 | 11.3 | 0.00 | 0.00 | 0.00 | 40 | 1012.6 |
| 20260505174102 | 25 | 253 | 3.2 | 9.7 | 0.00 | 0.00 | 0.00 | 41 | 1012.7 |
| 20260505173602 | 25 | 166 | 1.6 | 4.8 | 0.00 | 0.00 | 0.00 | 42 | 1012.8 |
| 20260505172603 | 24 | 272 | 3.2 | 8.0 | 0.00 | 0.00 | 0.00 | 42 | 1012.9 |
| 20260505172102 | 24 | 61 | 3.2 | 14.5 | 0.00 | 0.00 | 0.00 | 43 | 1012.9 |
| 20260505170603 | 24 | 255 | 1.6 | 4.8 | 0.00 | 0.00 | 0.00 | 43 | 1013.2 |
| 20260505165602 | 25 | 264 | 3.2 | 4.8 | 0.00 | 0.00 | 0.00 | 41 | 1013.1 |
| 20260505165103 | 25 | 115 | 1.6 | 4.8 | 0.00 | 0.00 | 0.00 | 41 | 1013.2 |
| 20260505164602 | 25 | 40 | 1.6 | 8.0 | 0.00 | 0.00 | 0.00 | 43 | 1013.1 |
| 20260505163602 | 25 | 276 | 4.8 | 4.8 | 0.00 | 0.00 | 0.00 | 43 | 1013.2 |
| 20260505162102 | 25 | 245 | 3.2 | 11.3 | 0.00 | 0.00 | 0.00 | 42 | 1013.3 |
| 20260505161602 | 25 | 118 | 1.6 | 4.8 | 0.00 | 0.00 | 0.00 | 46 | 1013.2 |
| 20260505161103 | 25 | 257 | 3.2 | 4.8 | 0.00 | 0.00 | 0.00 | 44 | 1013.1 |
| 20260505160603 | 25 | 257 | 4.8 | 11.3 | 0.00 | 0.00 | 0.00 | 44 | 1013.1 |
| 20260505153103 | 23 | 180 | 1.6 | 4.8 | 0.00 | 0.00 | 0.00 | 52 | 1013.1 |
| 20260505152603 | 23 | 71 | 1.6 | 4.8 | 0.00 | 0.00 | 0.00 | 53 | 1013.1 |
| 20260505152102 | 23 | 197 | 1.6 | 3.2 | 0.00 | 0.00 | 0.00 | 53 | 1013.1 |
| 20260505151103 | 23 | 107 | 4.8 | 11.3 | 0.00 | 0.00 | 0.00 | 55 | 1013.2 |
| 20260505150603 | 22 | 262 | 1.6 | 4.8 | 0.00 | 0.00 | 0.00 | 56 | 1013.4 |
| 20260505140603 | 20 | 174 | 0.0 | 3.2 | 0.00 | 0.00 | 0.00 | 65 | 1013.4 |
| 20260505130104 | 16 | 107 | 0.0 | 3.2 | 0.00 | 0.00 | 0.00 | 73 | 1013.5 |
| 20260505124603 | 15 | 77 | 1.6 | 4.8 | 0.00 | 0.00 | 0.00 | 76 | 1013.2 |
| 20260505124103 | 15 | 79 | 1.6 | 4.8 | 0.00 | 0.00 | 0.00 | 79 | 1013.3 |
| 20260505123603 | 15 | 79 | 3.2 | 8.0 | 0.00 | 0.00 | 0.00 | 81 | 1013.3 |
| 20260505123103 | 14 | 191 | 1.6 | 4.8 | 0.00 | 0.00 | 0.00 | 82 | 1013.3 |
| 20260505121103 | 13 | 200 | 0.0 | 0.0 | 0.00 | 0.00 | 0.00 | 84 | 1013.3 |
| 20260505115603 | 13 | 200 | 0.0 | 0.0 | 0.00 | 0.00 | 0.00 | 83 | 1013.0 |
| 20260505115103 | 13 | 200 | 0.0 | 1.6 | 0.00 | 0.00 | 0.00 | 83 | 1012.9 |
| 20260505114103 | 13 | 200 | 0.0 | 0.0 | 0.00 | 0.00 | 0.00 | 81 | 1012.5 |
| 20260505113603 | 13 | 200 | 0.0 | 0.0 | 0.00 | 0.00 | 0.00 | 81 | 1012.4 |
| 20260505113103 | 13 | 200 | 0.0 | 0.0 | 0.00 | 0.00 | 0.00 | 81 | 1012.3 |
| 20260505112103 | 13 | 200 | 0.0 | 0.0 | 0.00 | 0.00 | 0.00 | 81 | 1012.3 |
| 20260505111603 | 13 | 200 | 0.0 | 1.6 | 0.00 | 0.00 | 0.00 | 80 | 1012.3 |
| 20260505111103 | 13 | 200 | 0.0 | 1.6 | 0.00 | 0.00 | 0.00 | 80 | 1012.3 |
| 20260505110603 | 13 | 200 | 0.0 | 0.0 | 0.00 | 0.00 | 0.00 | 81 | 1012.2 |
| 20260505101603 | 15 | 200 | 0.0 | 0.0 | 0.00 | 0.00 | 0.00 | 74 | 1011.6 |
| 20260505101103 | 15 | 200 | 0.0 | 0.0 | 0.00 | 0.00 | 0.00 | 73 | 1011.5 |
| 20260505100603 | 15 | 200 | 0.0 | 0.0 | 0.00 | 0.00 | 0.00 | 73 | 1011.6 |
| 20260505100104 | 15 | 200 | 0.0 | 0.0 | 0.00 | 0.00 | 0.00 | 73 | 1011.6 |
| 20260505095103 | 15 | 200 | 0.0 | 1.6 | 0.00 | 0.00 | 0.00 | 72 | 1011.4 |
| 20260505093604 | 15 | 200 | 0.0 | 1.6 | 0.00 | 0.00 | 0.00 | 72 | 1011.3 |
| 20260505093103 | 15 | 200 | 0.0 | 1.6 | 0.00 | 0.00 | 0.00 | 72 | 1011.3 |
| 20260505092603 | 15 | 200 | 0.0 | 1.6 | 0.00 | 0.00 | 0.00 | 72 | 1011.4 |
| 20260505092103 | 15 | 200 | 0.0 | 0.0 | 0.00 | 0.00 | 0.00 | 72 | 1011.4 |
| 20260505091603 | 15 | 200 | 0.0 | 1.6 | 0.00 | 0.00 | 0.00 | 72 | 1011.4 |
| 20260505091103 | 15 | 200 | 0.0 | 0.0 | 0.00 | 0.00 | 0.00 | 72 | 1011.5 |
| 20260505090603 | 14 | 200 | 0.0 | 1.6 | 0.00 | 0.00 | 0.00 | 72 | 1011.5 |
| 20260505085103 | 14 | 200 | 0.0 | 0.0 | 0.00 | 0.00 | 0.00 | 72 | 1011.6 |
| 20260505084603 | 14 | 200 | 0.0 | 0.0 | 0.00 | 0.00 | 0.00 | 72 | 1011.6 |
| 20260505083603 | 14 | 200 | 0.0 | 0.0 | 0.00 | 0.00 | 0.00 | 72 | 1011.5 |
| 20260505082603 | 14 | 200 | 0.0 | 0.0 | 0.00 | 0.00 | 0.00 | 72 | 1011.4 |
| 20260505082103 | 14 | 200 | 0.0 | 0.0 | 0.00 | 0.00 | 0.00 | 71 | 1011.5 |
| 20260505081603 | 14 | 200 | 0.0 | 0.0 | 0.00 | 0.00 | 0.00 | 72 | 1011.6 |
| 20260505081103 | 14 | 200 | 0.0 | 0.0 | 0.00 | 0.00 | 0.00 | 73 | 1011.6 |
| 20260505080603 | 15 | 200 | 0.0 | 0.0 | 0.00 | 0.00 | 0.00 | 73 | 1011.7 |
| 20260505080103 | 15 | 200 | 0.0 | 0.0 | 0.00 | 0.00 | 0.00 | 73 | 1011.8 |
| 20260505075602 | 15 | 200 | 0.0 | 0.0 | 0.00 | 0.00 | 0.00 | 73 | 1011.9 |
| 20260505075103 | 15 | 200 | 0.0 | 0.0 | 0.00 | 0.00 | 0.00 | 71 | 1011.9 |
| 20260505074603 | 15 | 200 | 0.0 | 0.0 | 0.00 | 0.00 | 0.00 | 72 | 1012.0 |
| 20260505074103 | 15 | 200 | 0.0 | 0.0 | 0.00 | 0.00 | 0.00 | 72 | 1012.1 |
| 20260505073603 | 15 | 200 | 0.0 | 0.0 | 0.00 | 0.00 | 0.00 | 71 | 1012.1 |
| 20260505073103 | 15 | 200 | 0.0 | 1.6 | 0.00 | 0.00 | 0.00 | 71 | 1012.1 |
| 20260505072603 | 15 | 200 | 0.0 | 1.6 | 0.00 | 0.00 | 0.00 | 69 | 1012.1 |
| 20260505072103 | 15 | 200 | 0.0 | 0.0 | 0.00 | 0.00 | 0.00 | 68 | 1012.0 |
| 20260505071603 | 15 | 200 | 0.0 | 0.0 | 0.00 | 0.00 | 0.00 | 67 | 1011.9 |
| 20260505071103 | 16 | 200 | 0.0 | 0.0 | 0.00 | 0.00 | 0.00 | 67 | 1011.9 |
| 20260505070603 | 16 | 200 | 0.0 | 0.0 | 0.00 | 0.00 | 0.00 | 67 | 1012.0 |
| 20260505065604 | 16 | 200 | 0.0 | 0.0 | 0.00 | 0.00 | 0.00 | 65 | 1012.0 |
| 20260505065103 | 16 | 200 | 0.0 | 0.0 | 0.00 | 0.00 | 0.00 | 65 | 1012.1 |
| 20260505064103 | 16 | 200 | 0.0 | 0.0 | 0.00 | 0.00 | 0.00 | 64 | 1012.1 |
| 20260505063603 | 16 | 200 | 0.0 | 0.0 | 0.00 | 0.00 | 0.00 | 65 | 1012.1 |
| 20260505063103 | 16 | 200 | 0.0 | 1.6 | 0.00 | 0.00 | 0.00 | 63 | 1012.2 |
| 20260505062603 | 16 | 200 | 0.0 | 1.6 | 0.00 | 0.00 | 0.00 | 63 | 1012.2 |
| 20260505062103 | 16 | 200 | 0.0 | 1.6 | 0.00 | 0.00 | 0.00 | 63 | 1012.2 |
| 20260505061603 | 16 | 200 | 0.0 | 0.0 | 0.00 | 0.00 | 0.00 | 64 | 1012.3 |
| 20260505061104 | 17 | 200 | 0.0 | 1.6 | 0.00 | 0.00 | 0.00 | 64 | 1012.3 |
| 20260505060604 | 17 | 200 | 0.0 | 0.0 | 0.00 | 0.00 | 0.00 | 63 | 1012.2 |
| 20260505055604 | 17 | 200 | 0.0 | 1.6 | 0.00 | 0.00 | 0.00 | 63 | 1012.3 |
| 20260505055103 | 17 | 200 | 0.0 | 1.6 | 0.00 | 0.00 | 0.00 | 63 | 1012.3 |
| 20260505054103 | 16 | 200 | 0.0 | 1.6 | 0.00 | 0.00 | 0.00 | 64 | 1012.3 |
| 20260505053603 | 16 | 200 | 1.6 | 1.6 | 0.00 | 0.00 | 0.00 | 64 | 1012.4 |
| 20260505053103 | 16 | 200 | 1.6 | 1.6 | 0.00 | 0.00 | 0.00 | 65 | 1012.4 |
| 20260505052603 | 16 | 200 | 0.0 | 0.0 | 0.00 | 0.00 | 0.00 | 65 | 1012.4 |
| 20260505052103 | 16 | 200 | 0.0 | 0.0 | 0.00 | 0.00 | 0.00 | 65 | 1012.4 |
| 20260505051604 | 16 | 200 | 0.0 | 1.6 | 0.00 | 0.00 | 0.00 | 66 | 1012.5 |
| 20260505051105 | 16 | 200 | 0.0 | 1.6 | 0.00 | 0.00 | 0.00 | 66 | 1012.5 |
| 20260505050603 | 16 | 200 | 0.0 | 1.6 | 0.00 | 0.00 | 0.00 | 66 | 1012.5 |
| 20260505050104 | 16 | 200 | 0.0 | 3.2 | 0.00 | 0.00 | 0.00 | 66 | 1012.6 |
| 20260505040603 | 15 | 200 | 0.0 | 0.0 | 0.00 | 0.00 | 0.00 | 75 | 1012.4 |
| 20260505040104 | 15 | 200 | 0.0 | 0.0 | 0.00 | 0.00 | 0.00 | 75 | 1012.4 |
| 20260505035604 | 15 | 200 | 0.0 | 0.0 | 0.00 | 0.00 | 0.00 | 75 | 1012.4 |
| 20260505034604 | 15 | 200 | 0.0 | 0.0 | 0.00 | 0.00 | 0.00 | 74 | 1012.4 |
| 20260505034103 | 16 | 200 | 0.0 | 0.0 | 0.00 | 0.00 | 0.00 | 74 | 1012.5 |
| 20260505033603 | 16 | 200 | 0.0 | 0.0 | 0.00 | 0.00 | 0.00 | 73 | 1012.5 |
| 20260505033103 | 16 | 200 | 0.0 | 0.0 | 0.00 | 0.00 | 0.00 | 73 | 1012.5 |
| 20260505032603 | 16 | 200 | 0.0 | 0.0 | 0.00 | 0.00 | 0.00 | 72 | 1012.5 |
| 20260505031603 | 16 | 200 | 0.0 | 0.0 | 0.00 | 0.00 | 0.00 | 71 | 1012.5 |
| 20260505031104 | 16 | 200 | 0.0 | 0.0 | 0.00 | 0.00 | 0.00 | 71 | 1012.5 |
| 20260505030103 | 16 | 200 | 0.0 | 0.0 | 0.00 | 0.00 | 0.00 | 69 | 1012.5 |
| 20260505025603 | 16 | 200 | 0.0 | 0.0 | 0.00 | 0.00 | 0.00 | 69 | 1012.5 |
| 20260505025104 | 16 | 200 | 0.0 | 0.0 | 0.00 | 0.00 | 0.00 | 69 | 1012.5 |
| 20260505024603 | 17 | 200 | 0.0 | 0.0 | 0.00 | 0.00 | 0.00 | 69 | 1012.5 |
| 20260505024103 | 17 | 200 | 0.0 | 0.0 | 0.00 | 0.00 | 0.00 | 67 | 1012.4 |
| 20260505023603 | 17 | 200 | 0.0 | 0.0 | 0.00 | 0.00 | 0.00 | 67 | 1012.4 |
| 20260505023103 | 17 | 200 | 0.0 | 0.0 | 0.00 | 0.00 | 0.00 | 66 | 1012.4 |
| 20260505022603 | 17 | 200 | 0.0 | 0.0 | 0.00 | 0.00 | 0.00 | 66 | 1012.4 |
| 20260505022103 | 17 | 200 | 0.0 | 0.0 | 0.00 | 0.00 | 0.00 | 65 | 1012.4 |
| 20260505021604 | 17 | 200 | 0.0 | 0.0 | 0.00 | 0.00 | 0.00 | 65 | 1012.3 |
| 20260505021103 | 17 | 200 | 0.0 | 0.0 | 0.00 | 0.00 | 0.00 | 64 | 1012.3 |
| 20260505020603 | 18 | 200 | 0.0 | 0.0 | 0.00 | 0.00 | 0.00 | 63 | 1012.2 |
| 20260505015603 | 18 | 200 | 0.0 | 0.0 | 0.00 | 0.00 | 0.00 | 62 | 1012.1 |
| 20260505015104 | 18 | 200 | 0.0 | 1.6 | 0.00 | 0.00 | 0.00 | 61 | 1012.1 |
| 20260505014603 | 18 | 200 | 0.0 | 0.0 | 0.00 | 0.00 | 0.00 | 60 | 1012.0 |
| 20260505014103 | 19 | 200 | 0.0 | 1.6 | 0.00 | 0.00 | 0.00 | 59 | 1012.0 |
| 20260505013603 | 19 | 200 | 0.0 | 1.6 | 0.00 | 0.00 | 0.00 | 58 | 1012.0 |
| 20260505013104 | 20 | 200 | 0.0 | 0.0 | 0.00 | 0.00 | 0.00 | 57 | 1012.0 |
| 20260505011603 | 20 | 200 | 0.0 | 0.0 | 0.00 | 0.00 | 0.00 | 53 | 1012.0 |
| 20260505011103 | 21 | 200 | 0.0 | 0.0 | 0.00 | 0.00 | 0.00 | 52 | 1012.0 |
| 20260505010603 | 21 | 200 | 0.0 | 0.0 | 0.00 | 0.00 | 0.00 | 51 | 1011.9 |
| 20260505010104 | 21 | 200 | 0.0 | 0.0 | 0.00 | 0.00 | 0.00 | 51 | 1011.9 |
| 20260505005603 | 21 | 200 | 0.0 | 0.0 | 0.00 | 0.00 | 0.00 | 50 | 1011.8 |
| 20260505005104 | 22 | 200 | 0.0 | 0.0 | 0.00 | 0.00 | 0.00 | 49 | 1011.8 |
| 20260505003603 | 22 | 200 | 0.0 | 1.6 | 0.00 | 0.00 | 0.00 | 45 | 1011.6 |
| 20260505003104 | 22 | 200 | 0.0 | 1.6 | 0.00 | 0.00 | 0.00 | 45 | 1011.7 |
| 20260505002603 | 23 | 200 | 0.0 | 1.6 | 0.00 | 0.00 | 0.00 | 45 | 1011.6 |
| 20260505002103 | 23 | 200 | 0.0 | 3.2 | 0.00 | 0.00 | 0.00 | 44 | 1011.6 |
| 20260505001103 | 23 | 200 | 0.0 | 1.6 | 0.00 | 0.00 | 0.00 | 44 | 1011.5 |
| 20260505000103 | 23 | 200 | 0.0 | 3.2 | 0.00 | 0.00 | 0.00 | 42 | 1011.5 |
| 20260504235604 | 23 | 217 | 0.0 | 3.2 | 0.00 | 0.00 | 0.00 | 42 | 1011.5 |
| 20260504234604 | 23 | 213 | 1.6 | 3.2 | 0.00 | 0.00 | 0.00 | 40 | 1011.5 |
| 20260504234103 | 24 | 116 | 3.2 | 8.0 | 0.00 | 0.00 | 0.00 | 40 | 1011.5 |
| 20260504233603 | 24 | 265 | 1.6 | 4.8 | 0.00 | 0.00 | 0.00 | 40 | 1011.5 |
| 20260504233103 | 24 | 254 | 1.6 | 4.8 | 0.00 | 0.00 | 0.00 | 40 | 1011.5 |
| 20260504232603 | 24 | 274 | 3.2 | 11.3 | 0.00 | 0.00 | 0.00 | 40 | 1011.6 |
| 20260504232103 | 25 | 200 | 1.6 | 3.2 | 0.00 | 0.00 | 0.00 | 41 | 1011.6 |
| 20260504231604 | 25 | 242 | 0.0 | 4.8 | 0.00 | 0.00 | 0.00 | 41 | 1011.6 |
| 20260504231104 | 25 | 192 | 1.6 | 8.0 | 0.00 | 0.00 | 0.00 | 41 | 1011.6 |
| 20260504230603 | 25 | 265 | 1.6 | 4.8 | 0.00 | 0.00 | 0.00 | 41 | 1011.5 |
| 20260504225103 | 25 | 259 | 1.6 | 4.8 | 0.00 | 0.00 | 0.00 | 41 | 1011.6 |
| 20260504224603 | 25 | 165 | 1.6 | 4.8 | 0.00 | 0.00 | 0.00 | 41 | 1011.6 |
| 20260504224103 | 25 | 285 | 3.2 | 4.8 | 0.00 | 0.00 | 0.00 | 41 | 1011.7 |
| 20260504223104 | 25 | 345 | 3.2 | 4.8 | 0.00 | 0.00 | 0.00 | 42 | 1011.8 |
| 20260504222103 | 25 | 269 | 3.2 | 9.7 | 0.00 | 0.00 | 0.00 | 38 | 1011.9 |
| 20260504221603 | 25 | 261 | 1.6 | 9.7 | 0.00 | 0.00 | 0.00 | 38 | 1012.0 |
| 20260504221103 | 26 | 201 | 1.6 | 4.8 | 0.00 | 0.00 | 0.00 | 38 | 1011.9 |
| 20260504220604 | 26 | 278 | 3.2 | 4.8 | 0.00 | 0.00 | 0.00 | 38 | 1012.0 |
| 20260504220104 | 26 | 118 | 3.2 | 4.8 | 0.00 | 0.00 | 0.00 | 41 | 1011.9 |
| 20260504215103 | 26 | 246 | 1.6 | 4.8 | 0.00 | 0.00 | 0.00 | 40 | 1011.9 |
| 20260504214603 | 26 | 311 | 0.0 | 4.8 | 0.00 | 0.00 | 0.00 | 39 | 1011.9 |
| 20260504214104 | 27 | 268 | 1.6 | 9.7 | 0.00 | 0.00 | 0.00 | 38 | 1011.9 |
| 20260504213603 | 27 | 266 | 1.6 | 4.8 | 0.00 | 0.00 | 0.00 | 37 | 1011.9 |
| 20260504213103 | 27 | 269 | 3.2 | 4.8 | 0.00 | 0.00 | 0.00 | 38 | 1011.9 |
| 20260504212603 | 27 | 77 | 1.6 | 4.8 | 0.00 | 0.00 | 0.00 | 39 | 1011.9 |
| 20260504212104 | 27 | 171 | 1.6 | 12.9 | 0.00 | 0.00 | 0.00 | 38 | 1011.9 |
| 20260504211604 | 27 | 241 | 1.6 | 4.8 | 0.00 | 0.00 | 0.00 | 39 | 1011.9 |
| 20260504210603 | 27 | 272 | 3.2 | 9.7 | 0.00 | 0.00 | 0.00 | 37 | 1012.0 |
| 20260504205602 | 27 | 306 | 1.6 | 4.8 | 0.00 | 0.00 | 0.00 | 37 | 1012.1 |
| 20260504205102 | 27 | 203 | 1.6 | 4.8 | 0.00 | 0.00 | 0.00 | 36 | 1012.1 |
| 20260504204602 | 27 | 85 | 3.2 | 4.8 | 0.00 | 0.00 | 0.00 | 36 | 1012.2 |
| 20260504204103 | 27 | 217 | 1.6 | 4.8 | 0.00 | 0.00 | 0.00 | 38 | 1012.3 |
| 20260504203602 | 27 | 214 | 1.6 | 3.2 | 0.00 | 0.00 | 0.00 | 40 | 1012.2 |
| 20260504203103 | 27 | 100 | 3.2 | 11.3 | 0.00 | 0.00 | 0.00 | 40 | 1012.3 |
| 20260504202102 | 27 | 271 | 4.8 | 9.7 | 0.00 | 0.00 | 0.00 | 38 | 1012.5 |
| 20260504201602 | 27 | 48 | 1.6 | 4.8 | 0.00 | 0.00 | 0.00 | 40 | 1012.5 |
| 20260504200603 | 27 | 103 | 3.2 | 14.5 | 0.00 | 0.00 | 0.00 | 40 | 1012.5 |
| 20260504195603 | 27 | 288 | 1.6 | 4.8 | 0.00 | 0.00 | 0.00 | 40 | 1012.6 |
| 20260504195103 | 27 | 288 | 1.6 | 4.8 | 0.00 | 0.00 | 0.00 | 40 | 1012.6 |
| 20260504194602 | 27 | 150 | 1.6 | 4.8 | 0.00 | 0.00 | 0.00 | 43 | 1012.7 |
| 20260504194102 | 27 | 123 | 1.6 | 4.8 | 0.00 | 0.00 | 0.00 | 45 | 1012.8 |
| 20260504193603 | 27 | 198 | 1.6 | 4.8 | 0.00 | 0.00 | 0.00 | 42 | 1012.8 |
| 20260504192603 | 26 | 256 | 3.2 | 11.3 | 0.00 | 0.00 | 0.00 | 44 | 1013.1 |
| 20260504191602 | 26 | 315 | 0.0 | 9.7 | 0.00 | 0.00 | 0.00 | 43 | 1013.2 |
| 20260504191102 | 26 | 119 | 3.2 | 11.3 | 0.00 | 0.00 | 0.00 | 45 | 1013.3 |
| 20260504185602 | 26 | 124 | 1.6 | 8.0 | 0.00 | 0.00 | 0.00 | 46 | 1013.6 |
| 20260504185104 | 26 | 193 | 3.2 | 9.7 | 0.00 | 0.00 | 0.00 | 45 | 1013.7 |